This is the latest recevied weather packets stored in our database for station/object KG7MRB. If no packets are shown the sender has not sent any weather packets the latest 10 day(s).
| Time | Temp. | Humidity | Pressure | Rain* | Wind** | Luminosity | Snow |
|---|---|---|---|---|---|---|---|
| 1777840063 | 27.22° C | 34% | 1031.1 hPa | 0 mm | - | 676 W/m² | - |
| 1777839760 | 27.22° C | 34% | 1031.2 hPa | 0 mm | - | 690 W/m² | - |
| 1777839458 | 26.67° C | 36% | 1031.3 hPa | 0 mm | - | 684 W/m² | - |
| 1777839155 | 27.22° C | 34% | 1031.4 hPa | 0 mm | - | 703 W/m² | - |
| 1777838852 | 26.67° C | 37% | 1031.4 hPa | 0 mm | - | 699 W/m² | - |
| 1777838548 | 26.11° C | 34% | 1031.6 hPa | 0 mm | - | 697 W/m² | - |
| 1777838245 | 26.11° C | 35% | 1031.5 hPa | 0 mm | - | 691 W/m² | - |
| 1777837942 | 26.11° C | 35% | 1031.5 hPa | 0 mm | - | 691 W/m² | - |
| 1777837640 | 25.56° C | 38% | 1031.6 hPa | 0 mm | - | 691 W/m² | - |
| 1777837335 | 26.11° C | 35% | 1031.6 hPa | 0 mm | - | 690 W/m² | - |
| 1777837032 | 25.56° C | 37% | 1031.7 hPa | 0 mm | - | 687 W/m² | - |
| 1777836728 | 25.56° C | 36% | 1031.5 hPa | 0 mm | - | 685 W/m² | - |
| 1777836423 | 26.11° C | 35% | 1031.6 hPa | 0 mm | - | 681 W/m² | - |
| 1777836119 | 26.11° C | 36% | 1031.7 hPa | 0 mm | - | 678 W/m² | - |
| 1777835816 | 26.11° C | 38% | 1031.4 hPa | 0 mm | - | 676 W/m² | - |
| 1777835513 | 26.11° C | 37% | 1031.8 hPa | 0 mm | - | 671 W/m² | - |
| 1777835210 | 25.56° C | 39% | 1031.6 hPa | 0 mm | - | 667 W/m² | - |
| 1777834906 | 25° C | 40% | 1031.6 hPa | 0 mm | - | 662 W/m² | - |
| 1777834603 | 25° C | 38% | 1031.6 hPa | 0 mm | - | 657 W/m² | - |
| 1777834299 | 26.11° C | 36% | 1031.7 hPa | 0 mm | - | 653 W/m² | - |
| 1777833994 | 25.56° C | 35% | 1031.7 hPa | 0 mm | - | 647 W/m² | - |
| 1777833690 | 26.11° C | 39% | 1031.7 hPa | 0 mm | - | 640 W/m² | - |
| 1777833387 | 25.56° C | 37% | 1031.6 hPa | 0 mm | - | 632 W/m² | - |
| 1777833084 | 25° C | 36% | 1031.8 hPa | 0 mm | - | 625 W/m² | - |
| 1777832782 | 25.56° C | 34% | 1031.8 hPa | 0 mm | - | 623 W/m² | - |
* Rain latest hour (hover to see other rain measurements)
** Current wind speed in m/s (hover to see current wind gust speed)